This demonstration page uses our WeatherBlox Daily Observations layout. Learn more.

Left ArrowRight Arrow

Hourly Observations for May 17, 2017

Temp ( °F °C ) Dew Point ( °F °C ) Humidity (%) Winds ( mph kmh ) Pressure ( in mb ) Visibility ( mi km ) Precip ( " mm )
12:52 am 00:52 Clear 71 21.7 60 15.6 68 68 SSE 16 26 29.65 1004 10 16 0.00 0.00
1:52 am 01:52 Clear 70 21.1 60 15.6 71 71 S 16 26 29.64 1004 10 16 0.00 0.00
2:52 am 02:52 Clear 69 20.6 60 15.6 73 73 S 8 13 29.65 1004 10 16 0.00 0.00
3:52 am 03:52 Mostly Cloudy 68 20 61 16.1 78 78 SSE 8 13 29.66 1004 10 16 0.00 0.03
4:52 am 04:52 Mostly Clear 68 20 61 16.1 78 78 SSE 14 22 29.66 1004 10 16 0.00 0.00
5:52 am 05:52 Clear 69 20.6 60 15.6 73 73 SSE 21 33 29.65 1004 10 16 0.00 0.00
6:52 am 06:52 Cloudy 69 20.6 60 15.6 73 73 S 14 22 29.69 1005 10 16 0.00 0.00
7:52 am 07:52 Cloudy 65 18.3 62 16.7 90 90 SSE 10 17 29.68 1005 10 16 0.03 0.76
8:52 am 08:52 Sunny 67 19.4 62 16.7 84 84 SE 18 30 29.61 1003 10 16 0.00 0.00
9:52 am 09:52 Sunny 70 21.1 61 16.1 73 73 SSE 23 37 29.59 1002 10 16 0.00 0.00
10:52 am 10:52 Sunny 73 22.8 62 16.7 69 69 S 20 31 29.59 1002 10 16 0.00 0.00
11:52 am 11:52 Partly Cloudy 76 24.4 63 17.2 64 64 S 26 43 29.59 1002 10 16 0.00 0.00
12:52 pm 12:52 Cloudy 77 25 61 16.1 58 58 S 28 44 29.57 1002 10 16 0.00 0.00
1:52 pm 13:52 Partly Cloudy 80 26.7 62 16.7 54 54 S 28 44 29.54 1001 10 16 0.00 0.00
2:52 pm 14:52 Mostly Sunny 81 27.2 60 15.6 49 49 S 31 50 29.57 1001 10 16 0.00 0.00
3:52 pm 15:52 Mostly Cloudy 81 27.2 59 15 47 47 SSW 25 41 29.58 1002 10 16 0.00 0.00
4:52 pm 16:52 Mostly Cloudy 81 27.2 57 13.9 44 44 SSW 24 39 29.60 1003 10 16 0.00 0.00
5:52 pm 17:52 Partly Cloudy 80 26.7 58 14.4 47 47 SSW 18 30 29.61 1003 10 16 0.00 0.00
6:52 pm 18:52 Sunny 79 26.1 57 13.9 47 47 SW 18 30 29.62 1003 10 16 0.00 0.00
7:52 pm 19:52 Mostly Sunny 77 25 58 14.4 52 52 SSW 16 26 29.65 1004 10 16 0.00 0.00
8:52 pm 20:52 Mostly Clear 71 21.7 58 14.4 63 63 S 9 15 29.69 1005 10 16 0.00 0.00
9:52 pm 21:52 Clear 68 20 58 14.4 70 70 S 9 15 29.71 1006 10 16 0.00 0.00
10:52 pm 22:52 Clear 68 20 59 15 73 73 S 9 15 29.73 1007 10 16 0.00 0.00
11:52 pm 23:52 Clear 69 20.6 60 15.6 73 73 SSE 12 19 29.75 1007 10 16 0.00 0.00

Powered by AerisWeather